EW1967 Weather Reports


time (UTC)temp
C
wind
direction
speed
KPH
gust
KPH
rain 1hr
cm
rain 24hr
cm
rain mn
cm
humidity
%
barometer
mb
20260507230108 13 334 0.0 0.0 0.00 0.00 0.00 81 1011.0
20260507224554 13 333 0.0 0.0 0.00 0.03 0.00 81 1011.2
20260507223052 13 333 0.0 0.0 0.00 0.03 0.00 82 1011.2
20260507221550 13 333 0.0 0.0 0.00 0.03 0.00 81 1011.2
20260507220053 13 333 0.0 0.0 0.00 0.03 0.00 81 1011.2
20260507214548 13 333 0.0 1.6 0.00 0.03 0.03 81 1011.1
20260507213048 13 331 0.0 0.0 0.00 0.03 0.03 81 1011.1
20260507211532 13 331 0.0 0.0 0.00 0.03 0.03 80 1010.9
20260507210033 14 331 0.0 0.0 0.00 0.03 0.03 80 1010.9
20260507204531 14 331 0.0 0.0 0.00 0.03 0.03 80 1010.9
20260507203051 14 331 0.0 0.0 0.00 0.03 0.03 79 1011.0
20260507201532 15 331 0.0 0.0 0.00 0.03 0.03 78 1011.1
20260507200030 14 331 0.0 3.2 0.00 0.03 0.03 78 1011.0
20260507194531 14 332 3.2 6.4 0.00 0.03 0.03 79 1011.0
20260507193028 14 324 3.2 9.7 0.00 0.03 0.03 79 1010.7
20260507191532 14 329 1.6 9.7 0.00 0.03 0.03 78 1010.6
20260507190027 15 347 0.0 8.0 0.00 0.03 0.03 77 1010.6
20260507184527 15 323 1.6 4.8 0.00 0.03 0.03 77 1010.4
20260507183026 15 328 1.6 9.7 0.00 0.03 0.03 75 1010.3
20260507181525 15 319 3.2 12.9 0.00 0.03 0.03 75 1010.1
20260507180025 16 40 3.2 8.0 0.00 0.03 0.03 75 1010.1
20260507174535 16 311 4.8 14.5 0.00 0.03 0.03 74 1010.0
20260507173047 16 342 3.2 9.7 0.00 0.03 0.03 73 1009.8
20260507171526 17 315 3.2 16.1 0.00 0.03 0.03 71 1009.4
20260507170025 17 19 9.7 22.5 0.00 0.03 0.03 68 1009.1
20260507164522 19 355 9.7 16.1 0.00 0.03 0.03 61 1009.0
20260507163025 20 219 1.6 8.0 0.00 0.03 0.03 51 1008.9
20260507161523 21 259 1.6 9.7 0.00 0.03 0.03 49 1008.8
20260507160024 21 229 3.2 11.3 0.00 0.03 0.03 49 1008.9
20260507154519 21 251 4.8 16.1 0.00 0.03 0.03 48 1008.9
20260507153019 21 183 6.4 14.5 0.00 0.03 0.03 49 1009.0
20260507151516 20 184 9.7 16.1 0.00 0.03 0.03 50 1008.9
20260507150023 21 171 11.3 16.1 0.00 0.03 0.03 45 1009.0
20260507144514 22 225 3.2 12.9 0.00 0.03 0.03 45 1009.0
20260507143012 21 236 1.6 14.5 0.00 0.03 0.03 45 1009.2
20260507141510 21 231 1.6 11.3 0.00 0.03 0.03 45 1009.4
20260507140008 21 308 6.4 17.7 0.00 0.03 0.03 44 1009.6
20260507134510 21 277 1.6 19.3 0.00 0.03 0.03 47 1009.6
20260507133006 21 288 1.6 14.5 0.00 0.03 0.03 42 1009.7
20260507131503 21 131 4.8 14.5 0.00 0.03 0.03 42 1009.8
20260507130002 21 259 4.8 17.7 0.00 0.03 0.03 46 1010.0
20260507124608 21 269 4.8 19.3 0.00 0.03 0.03 44 1010.3
20260507124501 21 271 9.7 19.3 0.00 0.03 0.03 43 1010.3
20260507123059 21 179 1.6 14.5 0.00 0.03 0.03 46 1010.2
20260507121557 21 285 4.8 16.1 0.00 0.03 0.03 43 1010.1
20260507120055 20 136 9.7 17.7 0.00 0.03 0.03 41 1010.2
20260507114609 20 138 11.3 19.3 0.00 0.03 0.03 44 1010.2
20260507113051 20 181 12.9 19.3 0.00 0.03 0.03 46 1010.3
20260507111549 20 235 6.4 12.9 0.00 0.03 0.03 48 1010.3
20260507110048 20 194 6.4 14.5 0.00 0.03 0.03 52 1010.3
20260507104546 19 13 8.0 14.5 0.00 0.05 0.03 55 1010.3
20260507103049 19 38 1.6 8.0 0.00 0.05 0.03 56 1010.5
20260507101546 19 51 0.0 6.4 0.00 0.05 0.03 60 1010.7
20260507100040 19 82 0.0 9.7 0.00 0.05 0.03 60 1010.7
20260507094552 18 117 1.6 9.7 0.00 0.05 0.03 60 1010.7
20260507093037 18 140 6.4 11.3 0.00 0.05 0.03 64 1010.8
20260507091535 18 102 3.2 11.3 0.00 0.05 0.03 65 1010.9
20260507090031 18 81 4.8 11.3 0.00 0.05 0.03 64 1011.1
20260507084529 17 60 0.0 6.4 0.00 0.05 0.03 65 1011.2
20260507083027 17 44 1.6 6.4 0.00 0.05 0.03 65 1011.3
20260507081525 17 88 1.6 6.4 0.00 0.05 0.03 66 1011.4
20260507080021 17 88 1.6 9.7 0.00 0.05 0.03 70 1011.4
20260507074519 16 134 3.2 8.0 0.00 0.05 0.03 70 1011.5
20260507073016 16 104 3.2 6.4 0.00 0.05 0.03 72 1011.3
20260507071518 16 63 1.6 4.8 0.00 0.05 0.03 70 1011.4
20260507070018 15 56 0.0 4.8 0.00 0.05 0.03 75 1011.5
20260507064512 15 91 0.0 4.8 0.00 0.05 0.03 77 1011.4
20260507063004 14 96 0.0 3.2 0.00 0.05 0.03 80 1011.3
20260507061502 13 98 1.6 6.4 0.00 0.05 0.03 83 1011.4
20260507060101 13 52 3.2 4.8 0.00 0.05 0.03 83 1011.2
20260507054556 12 355 0.0 0.0 0.00 0.05 0.03 85 1011.2
20260507053118 12 355 0.0 1.6 0.00 0.05 0.03 86 1011.4
20260507051554 11 355 0.0 0.0 0.00 0.05 0.03 86 1011.2
20260507050050 11 355 0.0 0.0 0.00 0.05 0.03 86 1011.2
20260507044558 11 355 0.0 0.0 0.00 0.05 0.03 86 1011.1
20260507043048 11 355 0.0 3.2 0.00 0.05 0.03 85 1010.9
20260507041546 11 355 0.0 4.8 0.00 0.05 0.03 84 1010.8
20260507040044 12 123 0.0 3.2 0.00 0.05 0.03 82 1010.7
20260507034543 12 132 1.6 6.4 0.00 0.08 0.03 80 1010.5
20260507033048 12 229 0.0 8.0 0.00 0.08 0.03 79 1010.7
20260507031551 12 238 1.6 8.0 0.00 0.08 0.03 79 1010.8
20260507030042 12 251 1.6 6.4 0.00 0.08 0.03 78 1010.7
20260507024541 12 198 1.6 8.0 0.00 0.20 0.03 78 1010.7
20260507023034 12 285 3.2 11.3 0.00 0.20 0.03 77 1010.7
20260507021536 13 250 1.6 14.5 0.00 0.20 0.03 75 1010.5
20260507020032 13 265 3.2 12.9 0.00 0.20 0.03 75 1010.4
20260507014541 13 268 1.6 11.3 0.00 0.20 0.03 74 1010.3
20260507013037 13 288 1.6 8.0 0.00 0.20 0.03 75 1010.2
20260507011536 12 229 0.0 3.2 0.00 0.20 0.03 77 1010.2
20260507010038 12 242 0.0 3.2 0.00 0.20 0.03 80 1010.2
20260507004528 13 243 0.0 1.6 0.00 0.20 0.03 74 1010.2
20260507003027 13 239 1.6 4.8 0.00 0.20 0.03 73 1010.1
20260507001528 12 237 3.2 11.3 0.00 0.20 0.03 77 1010.2
20260507000024 13 28 0.0 3.2 0.00 0.20 0.03 76 1010.3
20260506234523 13 233 0.0 16.1 0.00 0.20 0.03 74 1010.4
20260506233021 13 157 6.4 12.9 0.00 0.20 0.03 75 1010.6
20260506231520 13 187 3.2 8.0 0.03 0.20 0.03 74 1010.6